#Datum;Uhrzeit;WR;Pac;DaySum;Status;WR;Pac;DaySum;Status;Pdc1;Udc;Temp;WR;Pac;DaySum;Status;Pdc1;Udc;Temp;WR;Pac;DaySum;Status;Pdc1;Udc;Temp;WR;Pac;DaySum;Status;Pdc1;Pdc2;Udc1;Udc2;Temp;WR;Pac;DaySum;Status;Pdc1;Pdc2;Udc1;Udc2;Temp;WR;Pac;DaySum;Status;Pdc1;Udc;Temp;WR;Pac;DaySum;Status;Pdc1;Udc;Temp;WR;Pac;DaySum;Status;Pdc1;Udc;Temp
13.02.21;23:55:00;1;523;25097;0;2;0;23784;0;0;0;0;3;0;16085;0;0;0;0;4;0;21448;0;0;0;0;5;0;0;0;0;0;0;0;0;6;0;44085;0;0;0;0;0;0;7;0;40550;0;0;0;0;8;0;39396;0;0;0;0;9;0;21349;0;0;0;0
13.02.21;23:50:00;1;722;25053;0;2;0;23784;0;0;0;0;3;0;16085;0;0;0;0;4;0;21448;0;0;0;0;5;0;0;0;0;0;0;0;0;6;0;44085;0;0;0;0;0;0;7;0;40550;0;0;0;0;8;0;39396;0;0;0;0;9;0;21349;0;0;0;0
13.02.21;23:45:00;1;525;24974;0;2;0;23784;0;0;0;0;3;0;16085;0;0;0;0;4;0;21448;0;0;0;0;5;0;0;0;0;0;0;0;0;6;0;44085;0;0;0;0;0;0;7;0;40550;0;0;0;0;8;0;39396;0;0;0;0;9;0;21349;0;0;0;0
13.02.21;23:40:00;1;902;24930;0;2;0;23784;0;0;0;0;3;0;16085;0;0;0;0;4;0;21448;0;0;0;0;5;0;0;0;0;0;0;0;0;6;0;44085;0;0;0;0;0;0;7;0;40550;0;0;0;0;8;0;39396;0;0;0;0;9;0;21349;0;0;0;0
13.02.21;23:35:00;1;519;24854;0;2;0;23784;0;0;0;0;3;0;16085;0;0;0;0;4;0;21448;0;0;0;0;5;0;0;0;0;0;0;0;0;6;0;44085;0;0;0;0;0;0;7;0;40550;0;0;0;0;8;0;39396;0;0;0;0;9;0;21349;0;0;0;0
13.02.21;23:30:00;1;694;24811;0;2;0;23784;0;0;0;0;3;0;16085;0;0;0;0;4;0;21448;0;0;0;0;5;0;0;0;0;0;0;0;0;6;0;44085;0;0;0;0;0;0;7;0;40550;0;0;0;0;8;0;39396;0;0;0;0;9;0;21349;0;0;0;0
13.02.21;23:25:00;1;761;24750;0;2;0;23784;0;0;0;0;3;0;16085;0;0;0;0;4;0;21448;0;0;0;0;5;0;0;0;0;0;0;0;0;6;0;44085;0;0;0;0;0;0;7;0;40550;0;0;0;0;8;0;39396;0;0;0;0;9;0;21349;0;0;0;0
13.02.21;23:20:00;1;588;24688;0;2;0;23784;0;0;0;0;3;0;16085;0;0;0;0;4;0;21448;0;0;0;0;5;0;0;0;0;0;0;0;0;6;0;44085;0;0;0;0;0;0;7;0;40550;0;0;0;0;8;0;39396;0;0;0;0;9;0;21349;0;0;0;0
13.02.21;23:15:00;1;1266;24639;0;2;0;23784;0;0;0;0;3;0;16085;0;0;0;0;4;0;21448;0;0;0;0;5;0;0;0;0;0;0;0;0;6;0;44085;0;0;0;0;0;0;7;0;40550;0;0;0;0;8;0;39396;0;0;0;0;9;0;21349;0;0;0;0
13.02.21;23:10:00;1;577;24549;0;2;0;23784;0;0;0;0;3;0;16085;0;0;0;0;4;0;21448;0;0;0;0;5;0;0;0;0;0;0;0;0;6;0;44085;0;0;0;0;0;0;7;0;40550;0;0;0;0;8;0;39396;0;0;0;0;9;0;21349;0;0;0;0
13.02.21;23:05:00;1;528;24499;0;2;0;23784;0;0;0;0;3;0;16085;0;0;0;0;4;0;21448;0;0;0;0;5;0;0;0;0;0;0;0;0;6;0;44085;0;0;0;0;0;0;7;0;40550;0;0;0;0;8;0;39396;0;0;0;0;9;0;21349;0;0;0;0
13.02.21;23:00:00;1;732;24436;0;2;0;23784;0;0;0;0;3;0;16085;0;0;0;0;4;0;21448;0;0;0;0;5;0;0;0;0;0;0;0;0;6;0;44085;0;0;0;0;0;0;7;0;40550;0;0;0;0;8;0;39396;0;0;0;0;9;0;21349;0;0;0;0
13.02.21;22:55:00;1;584;24372;0;2;0;23784;0;0;0;0;3;0;16085;0;0;0;0;4;0;21448;0;0;0;0;5;0;0;0;0;0;0;0;0;6;0;44085;2;0;0;0;0;0;7;0;40550;0;0;0;0;8;0;39396;0;0;0;0;9;0;21349;0;0;0;0
13.02.21;22:50:00;1;968;24323;0;2;0;23784;0;0;0;0;3;0;16085;0;0;0;0;4;0;21448;0;0;0;0;5;0;0;0;0;0;0;0;0;6;0;44085;2;0;0;0;0;0;7;0;40550;0;0;0;0;8;0;39396;0;0;0;0;9;0;21349;0;0;0;0
13.02.21;22:45:00;1;593;24240;0;2;0;23784;0;0;0;0;3;0;16085;0;0;0;0;4;0;21448;0;0;0;0;5;0;0;0;0;0;0;0;0;6;0;44085;2;0;0;0;0;0;7;0;40550;0;0;0;0;8;0;39396;0;0;0;0;9;0;21349;0;0;0;0
13.02.21;22:40:00;1;1015;24191;0;2;0;23784;0;0;0;0;3;0;16085;0;0;0;0;4;0;21448;0;0;0;0;5;0;0;0;0;0;0;0;0;6;0;44085;2;0;0;0;0;0;7;0;40550;0;0;0;0;8;0;39396;0;0;0;0;9;0;21349;0;0;0;0
13.02.21;22:35:00;1;737;24118;0;2;0;23784;0;0;0;0;3;0;16085;0;0;0;0;4;0;21448;0;0;0;0;5;0;0;0;0;0;0;0;0;6;0;44085;2;0;0;0;0;0;7;0;40550;0;0;0;0;8;0;39396;0;0;0;0;9;0;21349;0;0;0;0
13.02.21;22:30:00;1;547;24068;0;2;0;23784;0;0;0;0;3;0;16085;0;0;0;0;4;0;21448;0;0;0;0;5;0;0;0;0;0;0;0;0;6;0;44085;2;0;0;0;0;0;7;0;40550;0;0;0;0;8;0;39396;0;0;0;0;9;0;21349;0;0;0;0
13.02.21;22:25:00;1;797;24023;0;2;0;23784;0;0;0;0;3;0;16085;0;0;0;0;4;0;21448;0;0;0;0;5;0;0;0;0;0;0;0;0;6;0;44085;2;0;0;0;0;0;7;0;40550;0;0;0;0;8;0;39396;0;0;0;0;9;0;21349;0;0;0;0
13.02.21;22:20:00;1;585;23940;0;2;0;23784;0;0;0;0;3;0;16085;0;0;0;0;4;0;21448;0;0;0;0;5;0;0;0;0;0;0;0;0;6;0;44085;2;0;0;0;0;0;7;0;40550;0;0;0;0;8;0;39396;0;0;0;0;9;0;21349;0;0;0;0
13.02.21;22:15:00;1;712;23890;0;2;0;23784;0;0;0;0;3;0;16085;0;0;0;0;4;0;21448;0;0;0;0;5;0;0;0;0;0;0;0;0;6;0;44085;2;0;0;0;0;0;7;0;40550;0;0;0;0;8;0;39396;0;0;0;0;9;0;21349;0;0;0;0
13.02.21;22:10:00;1;702;23816;0;2;0;23784;0;0;0;0;3;0;16085;0;0;0;0;4;0;21448;0;0;0;0;5;0;0;0;0;0;0;0;0;6;0;44085;2;0;0;0;0;0;7;0;40550;0;0;0;0;8;0;39396;0;0;0;0;9;0;21349;0;0;0;0
13.02.21;22:05:00;1;527;23760;0;2;0;23784;0;0;0;0;3;0;16085;0;0;0;0;4;0;21448;0;0;0;0;5;0;0;0;0;0;0;0;0;6;0;44085;2;0;0;0;0;0;7;0;40550;0;0;0;0;8;0;39396;0;0;0;0;9;0;21349;0;0;0;0
13.02.21;22:00:00;1;1176;23716;0;2;0;23784;0;0;0;0;3;0;16085;0;0;0;0;4;0;21448;0;0;0;0;5;0;0;0;0;0;0;0;0;6;0;44085;2;0;0;0;0;0;7;0;40550;0;0;0;0;8;0;39396;0;0;0;0;9;0;21349;0;0;0;0
13.02.21;21:55:00;1;539;23640;0;2;0;23784;0;0;0;0;3;0;16085;0;0;0;0;4;0;21448;0;0;0;0;5;0;0;0;0;0;0;0;0;6;0;44085;2;0;0;0;0;0;7;0;40550;0;0;0;0;8;0;39396;0;0;0;0;9;0;21349;0;0;0;0
13.02.21;21:50:00;1;746;23595;0;2;0;23784;0;0;0;0;3;0;16085;0;0;0;0;4;0;21448;0;0;0;0;5;0;0;0;0;0;0;0;0;6;0;44085;2;0;0;0;0;0;7;0;40550;0;0;0;0;8;0;39396;0;0;0;0;9;0;21349;0;0;0;0
13.02.21;21:45:00;1;751;23536;0;2;0;23784;0;0;0;0;3;0;16085;0;0;0;0;4;0;21448;0;0;0;0;5;0;0;0;0;0;0;0;0;6;0;44085;2;0;0;0;0;0;7;0;40550;0;0;0;0;8;0;39396;0;0;0;0;9;0;21349;0;0;0;0
13.02.21;21:40:00;1;589;23468;0;2;0;23784;0;0;0;0;3;0;16085;0;0;0;0;4;0;21448;0;0;0;0;5;0;0;0;0;0;0;0;0;6;0;44085;2;0;0;0;0;0;7;0;40550;0;0;0;0;8;0;39396;0;0;0;0;9;0;21349;0;0;0;0
13.02.21;21:35:00;1;1033;23419;0;2;0;23784;0;0;0;0;3;0;16085;0;0;0;0;4;0;21448;0;0;0;0;5;0;0;0;0;0;0;0;0;6;0;44085;2;0;0;0;0;0;7;0;40550;0;0;0;0;8;0;39396;0;0;0;0;9;0;21349;0;0;0;0
13.02.21;21:30:00;1;649;23336;0;2;0;23784;0;0;0;0;3;0;16085;0;0;0;0;4;0;21448;0;0;0;0;5;0;0;0;0;0;0;0;0;6;0;44085;2;0;0;0;0;0;7;0;40550;0;0;0;0;8;0;39396;0;0;0;0;9;0;21349;0;0;0;0
13.02.21;21:25:00;1;644;23282;0;2;0;23784;0;0;0;0;3;0;16085;0;0;0;0;4;0;21448;0;0;0;0;5;0;0;0;0;0;0;0;0;6;0;44085;2;0;0;0;0;0;7;0;40550;0;0;0;0;8;0;39396;0;0;0;0;9;0;21349;0;0;0;0
13.02.21;21:20:00;1;1175;23229;0;2;0;23784;0;0;0;0;3;0;16085;0;0;0;0;4;0;21448;0;0;0;0;5;0;0;0;0;0;0;0;0;6;0;44085;2;0;0;0;0;0;7;0;40550;0;0;0;0;8;0;39396;0;0;0;0;9;0;21349;0;0;0;0
13.02.21;21:15:00;1;531;23148;0;2;0;23784;0;0;0;0;3;0;16085;0;0;0;0;4;0;21448;0;0;0;0;5;0;0;0;0;0;0;0;0;6;0;44085;2;0;0;0;0;0;7;0;40550;0;0;0;0;8;0;39396;0;0;0;0;9;0;21349;0;0;0;0
13.02.21;21:10:00;1;710;23104;0;2;0;23784;0;0;0;0;3;0;16085;0;0;0;0;4;0;21448;0;0;0;0;5;0;0;0;0;0;0;0;0;6;0;44085;2;0;0;0;0;0;7;0;40550;0;0;0;0;8;0;39396;0;0;0;0;9;0;21349;0;0;0;0
13.02.21;21:05:00;1;775;23038;0;2;0;23784;0;0;0;0;3;0;16085;0;0;0;0;4;0;21448;0;0;0;0;5;0;0;0;0;0;0;0;0;6;0;44085;2;0;0;0;0;0;7;0;40550;0;0;0;0;8;0;39396;0;0;0;0;9;0;21349;0;0;0;0
13.02.21;21:00:00;1;545;22976;0;2;0;23784;0;0;0;0;3;0;16085;0;0;0;0;4;0;21448;0;0;0;0;5;0;0;0;0;0;0;0;0;6;0;44085;2;0;0;0;0;0;7;0;40550;0;0;0;0;8;0;39396;0;0;0;0;9;0;21349;0;0;0;0
13.02.21;20:55:00;1;1415;22931;0;2;0;23784;0;0;0;0;3;0;16085;0;0;0;0;4;0;21448;0;0;0;0;5;0;0;0;0;0;0;0;0;6;0;44085;2;0;0;0;0;0;7;0;40550;0;0;0;0;8;0;39396;0;0;0;0;9;0;21349;0;0;0;0
13.02.21;20:50:00;1;557;22848;0;2;0;23784;0;0;0;0;3;0;16085;0;0;0;0;4;0;21448;0;0;0;0;5;0;0;0;0;0;0;0;0;6;0;44085;2;0;0;0;0;0;7;0;40550;0;0;0;0;8;0;39396;0;0;0;0;9;0;21349;0;0;0;0
13.02.21;20:45:00;1;541;22802;0;2;0;23784;0;0;0;0;3;0;16085;0;0;0;0;4;0;21448;0;0;0;0;5;0;0;0;0;0;0;0;0;6;0;44085;2;0;0;0;0;0;7;0;40550;0;0;0;0;8;0;39396;0;0;0;0;9;0;21349;0;0;0;0
13.02.21;20:40:00;1;1277;22757;0;2;0;23784;0;0;0;0;3;0;16085;0;0;0;0;4;0;21448;0;0;0;0;5;0;0;0;0;0;0;0;0;6;0;44085;2;0;0;0;0;0;7;0;40550;0;0;0;0;8;0;39396;0;0;0;0;9;0;21349;0;0;0;0
13.02.21;20:35:00;1;682;22671;0;2;0;23784;0;0;0;0;3;0;16085;0;0;0;0;4;0;21448;0;0;0;0;5;0;0;0;0;0;0;0;0;6;0;44085;2;0;0;0;0;0;7;0;40550;0;0;0;0;8;0;39396;0;0;0;0;9;0;21349;0;0;0;0
13.02.21;20:30:00;1;641;22613;0;2;0;23784;0;0;0;0;3;0;16085;0;0;0;0;4;0;21448;0;0;0;0;5;0;0;0;0;0;0;0;0;6;0;44085;2;0;0;0;0;0;7;0;40550;0;0;0;0;8;0;39396;0;0;0;0;9;0;21349;0;0;0;0
13.02.21;20:25:00;1;994;22561;0;2;0;23784;0;0;0;0;3;0;16085;0;0;0;0;4;0;21448;0;0;0;0;5;0;0;0;0;0;0;0;0;6;0;44085;2;0;0;0;0;0;7;0;40550;0;0;0;0;8;0;39396;0;0;0;0;9;0;21349;0;0;0;0
13.02.21;20:20:00;1;521;22477;0;2;0;23784;0;0;0;0;3;0;16085;0;0;0;0;4;0;21448;0;0;0;0;5;0;0;0;0;0;0;0;0;6;0;44085;2;0;0;0;0;0;7;0;40550;0;0;0;0;8;0;39396;0;0;0;0;9;0;21349;0;0;0;0
13.02.21;20:15:00;1;527;22433;0;2;0;23784;0;0;0;0;3;0;16085;0;0;0;0;4;0;21448;0;0;0;0;5;0;0;0;0;0;0;0;0;6;0;44085;2;0;0;0;0;0;7;0;40550;0;0;0;0;8;0;39396;0;0;0;0;9;0;21349;0;0;0;0
13.02.21;20:10:00;1;705;22377;0;2;0;23784;0;0;0;0;3;0;16085;0;0;0;0;4;0;21448;0;0;0;0;5;0;0;0;0;0;0;0;0;6;0;44085;2;0;0;0;0;0;7;0;40550;0;0;0;0;8;0;39396;0;0;0;0;9;0;21349;0;0;0;0
13.02.21;20:05:00;1;559;22311;0;2;0;23784;0;0;0;0;3;0;16085;0;0;0;0;4;0;21448;0;0;0;0;5;0;0;0;0;0;0;0;0;6;0;44085;2;0;0;0;0;0;7;0;40550;0;0;0;0;8;0;39396;0;0;0;0;9;0;21349;0;0;0;0
13.02.21;20:00:00;1;1232;22263;0;2;0;23784;0;0;0;0;3;0;16085;0;0;0;0;4;0;21448;0;0;0;0;5;0;0;0;0;0;0;0;0;6;0;44085;2;0;0;0;0;0;7;0;40550;0;0;0;0;8;0;39396;0;0;0;0;9;0;21349;0;0;0;0
13.02.21;19:55:00;1;524;22183;0;2;0;23784;0;0;0;0;3;0;16085;0;0;0;0;4;0;21448;0;0;0;0;5;0;0;0;0;0;0;0;0;6;0;44085;2;0;0;0;0;0;7;0;40550;0;0;0;0;8;0;39396;0;0;0;0;9;0;21349;0;0;0;0
13.02.21;19:50:00;1;483;22139;0;2;0;23784;0;0;0;0;3;0;16085;0;0;0;0;4;0;21448;0;0;0;0;5;0;0;0;0;0;0;0;0;6;0;44085;2;0;0;0;0;0;7;0;40550;0;0;0;0;8;0;39396;0;0;0;0;9;0;21349;0;0;0;0
13.02.21;19:45:00;1;693;22098;0;2;0;23784;0;0;0;0;3;0;16085;0;0;0;0;4;0;21448;0;0;0;0;5;0;0;0;0;0;0;0;0;6;0;44085;2;0;0;0;0;0;7;0;40550;0;0;0;0;8;0;39396;0;0;0;0;9;0;21349;0;0;0;0
13.02.21;19:40:00;1;477;22027;0;2;0;23784;0;0;0;0;3;0;16085;0;0;0;0;4;0;21448;0;0;0;0;5;0;0;0;0;0;0;0;0;6;0;44085;2;0;0;0;0;0;7;0;40550;0;0;0;0;8;0;39396;0;0;0;0;9;0;21349;0;0;0;0
13.02.21;19:35:00;1;542;21988;0;2;0;23784;0;0;0;0;3;0;16085;0;0;0;0;4;0;21448;0;0;0;0;5;0;0;0;0;0;0;0;0;6;0;44085;0;0;0;0;0;0;7;0;40550;0;0;0;0;8;0;39396;0;0;0;0;9;0;21349;0;0;0;0
13.02.21;19:30:00;1;1082;21942;0;2;0;23784;0;0;0;0;3;0;16085;0;0;0;0;4;0;21448;0;0;0;0;5;0;0;0;0;0;0;0;0;6;0;44085;2;0;0;0;0;0;7;0;40550;0;0;0;0;8;0;39396;0;0;0;0;9;0;21349;0;0;0;0
13.02.21;19:25:00;1;500;21856;0;2;0;23784;0;0;0;0;3;0;16085;0;0;0;0;4;0;21448;0;0;0;0;5;0;0;0;0;0;0;0;0;6;0;44085;2;0;0;0;0;0;7;0;40550;0;0;0;0;8;0;39396;0;0;0;0;9;0;21349;0;0;0;0
13.02.21;19:20:00;1;441;21814;0;2;0;23784;0;0;0;0;3;0;16085;0;0;0;0;4;0;21448;0;0;0;0;5;0;0;0;0;0;0;0;0;6;0;44085;2;0;0;0;0;0;7;0;40550;0;0;0;0;8;0;39396;0;0;0;0;9;0;21349;0;0;0;0
13.02.21;19:15:00;1;605;21776;0;2;0;23784;0;0;0;0;3;0;16085;0;0;0;0;4;0;21448;0;0;0;0;5;0;0;0;0;0;0;0;0;6;0;44085;2;0;0;0;0;0;7;0;40550;0;0;0;0;8;0;39396;0;0;0;0;9;0;21349;0;0;0;0
13.02.21;19:10:00;1;447;21709;0;2;0;23784;0;0;0;0;3;0;16085;0;0;0;0;4;0;21448;0;0;0;0;5;0;0;0;0;0;0;0;0;6;0;44085;2;0;0;0;0;0;7;0;40550;0;0;0;0;8;0;39396;0;0;0;0;9;0;21349;0;0;0;0
13.02.21;19:05:00;1;456;21672;0;2;0;23784;0;0;0;0;3;0;16085;0;0;0;0;4;0;21448;0;0;0;0;5;0;0;0;0;0;0;0;0;6;0;44085;2;0;0;0;0;0;7;0;40550;0;0;0;0;8;0;39396;0;0;0;0;9;0;21349;0;0;0;0
13.02.21;19:00:00;1;740;21634;0;2;0;23784;0;0;0;0;3;0;16085;0;0;0;0;4;0;21448;0;0;0;0;5;0;0;0;0;0;0;0;0;6;0;44085;2;0;0;0;0;0;7;0;40550;0;0;0;0;8;0;39396;0;0;0;0;9;0;21349;0;0;0;0
13.02.21;18:55:00;1;471;21565;0;2;0;23784;0;0;0;0;3;0;16085;0;0;0;0;4;0;21448;0;0;0;0;5;0;0;0;0;0;0;0;0;6;0;44085;2;0;0;0;0;0;7;0;40550;0;0;0;0;8;0;39396;0;0;0;0;9;0;21349;0;0;0;0
13.02.21;18:50:00;1;665;21525;0;2;0;23784;0;0;0;0;3;0;16085;0;0;0;0;4;0;21448;0;0;0;0;5;0;0;0;0;0;0;0;0;6;0;44085;2;0;0;0;0;0;7;0;40550;0;0;0;0;8;0;39396;0;0;0;0;9;0;21349;0;0;0;0
13.02.21;18:45:00;1;921;21476;0;2;0;23784;0;0;0;0;3;0;16085;0;0;0;0;4;0;21448;0;0;0;0;5;0;0;0;0;0;0;0;0;6;0;44085;2;0;0;0;0;0;7;0;40550;0;0;0;0;8;0;39396;0;0;0;0;9;0;21349;0;0;0;0
13.02.21;18:40:00;1;513;21405;0;2;0;23784;0;0;0;0;3;0;16085;0;0;0;0;4;0;21448;0;0;0;0;5;0;0;0;0;0;0;0;0;6;0;44085;2;0;0;0;0;0;7;0;40550;0;0;0;0;8;0;39396;0;0;0;0;9;0;21349;0;0;0;0
13.02.21;18:35:00;1;1128;21362;0;2;0;23784;0;0;0;0;3;0;16085;0;0;0;0;4;0;21448;0;0;0;0;5;0;0;0;0;0;0;0;0;6;0;44085;2;0;0;0;0;0;7;0;40550;0;0;0;0;8;0;39396;0;0;0;0;9;0;21349;0;0;0;0
13.02.21;18:30:00;1;1779;21271;0;2;0;23784;0;0;0;0;3;0;16085;0;0;0;0;4;0;21448;0;0;0;0;5;0;0;0;0;0;0;0;0;6;0;44085;2;0;0;0;0;0;7;0;40550;0;0;0;0;8;0;39396;0;0;0;0;9;0;21349;0;0;0;0
13.02.21;18:25:00;1;2776;21116;0;2;0;23784;0;0;0;0;3;0;16085;0;0;0;0;4;0;21448;0;0;0;0;5;0;0;0;0;0;0;0;0;6;0;44085;2;0;0;0;0;0;7;0;40550;0;0;0;0;8;0;39396;0;0;0;0;9;0;21349;0;0;0;0
13.02.21;18:20:00;1;3402;20874;0;2;0;23784;0;0;0;0;3;0;16085;0;0;0;0;4;0;21448;0;0;0;0;5;0;0;0;0;0;0;0;0;6;0;44085;2;0;0;0;0;0;7;0;40550;0;0;0;0;8;0;39396;0;0;0;0;9;0;21349;0;0;0;0
13.02.21;18:15:00;1;1489;20602;0;2;0;23784;0;0;0;0;3;0;16085;0;0;0;0;4;0;21448;0;0;0;0;5;0;0;0;0;0;0;0;0;6;0;44085;2;0;0;0;0;0;7;0;40550;0;0;0;0;8;0;39396;0;0;0;0;9;0;21349;0;0;0;0
13.02.21;18:10:00;1;386;20400;0;2;0;23784;0;0;0;0;3;0;16085;0;0;0;0;4;0;21448;0;0;0;0;5;0;0;0;0;0;0;0;0;6;0;44085;2;0;0;0;0;0;7;0;40550;0;0;0;0;8;0;39396;0;0;0;0;9;0;21349;0;0;0;0
13.02.21;18:05:00;1;402;20368;0;2;0;23784;0;0;0;0;3;0;16085;0;0;0;0;4;0;21448;0;0;0;0;5;0;0;0;0;0;0;0;0;6;0;44085;2;0;0;0;0;0;7;0;40550;0;0;0;0;8;0;39396;0;0;0;0;9;0;21349;0;0;0;0
13.02.21;18:00:00;1;817;20332;0;2;0;23784;0;0;0;0;3;0;16085;0;0;0;0;4;0;21448;0;0;0;0;5;0;0;0;0;0;0;0;0;6;0;44085;2;0;0;0;0;0;7;0;40550;0;0;0;0;8;0;39396;0;0;0;0;9;0;21349;0;0;0;0
13.02.21;17:55:00;1;586;20240;0;2;0;23784;0;0;0;0;3;0;16085;0;0;0;0;4;0;21448;0;0;0;0;5;0;0;0;0;0;0;0;0;6;0;44085;2;0;0;0;0;0;7;0;40550;0;0;0;0;8;0;39396;0;0;0;0;9;0;21349;0;0;0;0
13.02.21;17:50:00;1;629;20190;0;2;0;23784;0;0;247;7;3;0;16085;6;0;303;11;4;0;21448;0;0;0;0;5;0;0;0;0;0;0;0;0;6;0;44085;2;0;0;0;0;0;7;0;40550;0;0;0;0;8;0;39396;0;0;0;0;9;0;21349;0;0;0;0
13.02.21;17:45:00;1;1102;20136;0;2;0;23784;6;0;343;9;3;0;16085;6;1;398;12;4;0;21448;0;0;57;5;5;0;0;0;0;0;0;0;0;6;0;44085;0;1;0;22;21;3;7;0;40550;0;0;0;0;8;0;39396;0;0;0;0;9;0;21349;0;0;0;0
13.02.21;17:40:00;1;610;20054;0;2;0;23784;6;0;388;10;3;0;16085;6;3;451;12;4;0;21448;1;0;121;7;5;0;0;0;0;0;0;0;0;6;0;44085;23;2;8;418;305;22;7;0;40550;0;0;199;10;8;0;39396;0;0;194;10;9;0;21349;0;0;203;6
13.02.21;17:35:00;1;474;20002;0;2;0;23784;6;0;409;10;3;2;16084;6;6;472;12;4;0;21448;1;0;169;8;5;0;0;0;0;0;0;0;0;6;0;44085;23;3;7;385;389;23;7;0;40550;6;0;351;15;8;0;39396;6;0;346;14;9;0;21349;6;0;355;9
13.02.21;17:30:00;1;639;19964;0;2;0;23784;6;5;417;11;3;2;16084;6;9;497;13;4;0;21448;1;0;202;8;5;0;0;0;0;0;0;0;0;6;0;44085;23;2;7;477;604;24;7;0;40550;4;0;419;16;8;0;39396;6;0;432;15;9;0;21349;6;0;453;9
13.02.21;17:25:00;1;363;19898;0;2;3;23784;6;8;425;12;3;1;16084;6;10;512;13;4;0;21448;3;0;230;9;5;0;0;0;0;0;0;0;0;6;52;44084;4;17;34;520;495;25;7;0;40550;3;6;449;16;8;1;39396;6;1;472;15;9;0;21349;6;2;511;10
13.02.21;17:20:00;1;342;19867;0;2;63;23784;4;100;393;13;3;10;16084;6;21;532;14;4;7;21448;3;7;199;10;5;0;0;0;0;0;0;0;0;6;77;44080;4;25;44;520;495;25;7;13;40550;6;21;452;17;8;7;39396;4;14;472;16;9;0;21349;6;0;570;10
13.02.21;17:15:00;1;780;19838;0;2;226;23779;4;273;418;14;3;124;16083;4;162;456;14;4;64;21448;3;67;207;10;5;0;0;0;0;0;0;0;0;6;119;44073;4;62;86;520;495;25;7;68;40549;4;100;425;18;8;55;39395;4;91;422;16;9;2;21349;4;7;566;11
13.02.21;17:10:00;1;310;19778;0;2;363;23759;4;410;421;14;3;229;16072;4;272;448;15;4;259;21442;5;270;228;11;5;0;0;0;0;0;0;0;0;6;176;44062;4;70;95;520;495;25;7;129;40543;4;156;452;18;8;94;39390;4;139;460;17;9;23;21349;3;34;525;11
13.02.21;17:05:00;1;353;19752;0;2;441;23730;4;494;417;15;3;299;16054;4;342;447;15;4;381;21421;5;396;224;11;5;0;0;0;0;0;0;0;0;6;256;44047;4;109;144;520;514;25;7;272;40533;4;317;476;18;8;138;39382;4;178;453;17;9;23;21347;6;33;575;12
13.02.21;17:00:00;1;807;19722;0;2;591;23692;4;649;417;16;3;398;16028;4;447;448;16;4;482;21389;5;501;227;11;5;0;0;0;0;0;0;0;0;6;423;44024;4;202;233;602;580;25;7;556;40509;4;591;482;19;8;242;39371;4;280;469;18;9;96;21344;4;127;499;12
13.02.21;16:55:00;1;624;19663;0;2;718;23643;4;772;357;17;3;467;15995;4;516;456;17;4;541;21349;5;564;244;12;5;0;0;0;0;0;0;0;0;6;537;43989;4;274;291;620;589;26;7;748;40463;4;797;489;20;8;338;39350;4;382;481;18;9;118;21336;4;154;537;13
13.02.21;16:50:00;1;431;19627;0;2;910;23583;4;973;357;18;3;579;15956;4;633;444;17;4;642;21304;5;669;235;12;5;0;0;0;0;0;0;0;0;6;710;43942;4;339;371;619;594;26;7;1113;40400;4;1183;480;20;8;504;39322;4;545;501;19;9;153;21327;4;189;552;13
13.02.21;16:45:00;1;451;19592;0;2;1197;23507;4;1266;354;19;3;725;15908;4;784;456;17;4;795;21250;5;828;235;13;5;0;0;0;0;0;0;0;0;6;947;43882;4;457;473;628;596;26;7;1441;40307;4;1519;489;21;8;649;39280;4;713;503;20;9;210;21314;4;247;556;14
13.02.21;16:40:00;1;387;19556;0;2;1489;23407;4;1575;397;21;3;865;15847;4;928;449;18;4;934;21183;5;973;233;13;5;0;0;0;0;0;0;0;0;6;1242;43800;4;626;628;627;601;26;7;1997;40186;4;2104;498;22;8;873;39226;4;924;391;20;9;293;21296;4;337;565;14
13.02.21;16:35:00;1;370;19492;0;2;1760;23285;4;1859;409;22;3;965;15776;4;1033;459;18;4;1002;21107;5;1043;243;13;5;0;0;0;0;0;0;0;0;6;1408;43697;4;726;729;632;604;26;7;2251;40022;4;2352;500;22;8;1243;39155;4;1305;367;21;9;328;21272;4;376;571;15
13.02.21;16:30:00;1;305;19461;0;2;2126;23137;4;2238;413;22;3;1175;15695;4;1248;452;19;4;1190;21023;5;1239;249;13;5;0;0;0;0;0;0;0;0;6;1783;43576;4;927;924;638;607;27;7;2695;39833;4;2829;498;23;8;1883;39050;4;1971;407;22;9;409;21245;4;458;569;16
13.02.21;16:25:00;1;1011;19436;0;2;2148;22960;4;2266;410;23;3;1186;15597;4;1262;446;19;4;1131;20923;5;1178;241;13;5;0;0;0;0;0;0;0;0;6;1847;43426;4;967;957;634;612;27;7;2779;39609;4;2911;504;23;8;2257;38893;4;2369;461;22;9;307;21210;4;343;418;16
13.02.21;16:20:00;1;355;19377;0;2;2104;22781;4;2217;410;23;3;1165;15499;4;1238;446;19;4;1045;20830;5;1088;206;14;5;0;0;0;0;0;0;0;0;6;1823;43272;4;951;945;634;610;27;7;2749;39377;4;2887;497;23;8;2520;38704;4;2641;487;23;9;437;21185;4;475;355;17
13.02.21;16:15:00;1;357;19348;0;2;2079;22606;4;2193;414;24;3;1181;15401;4;1255;446;19;4;958;20743;5;998;210;14;5;0;0;0;0;0;0;0;0;6;1755;43122;4;877;867;631;610;27;7;2779;39148;4;2914;497;24;8;2673;38494;4;2801;488;24;9;800;21149;4;849;354;18
13.02.21;16:10:00;1;513;19319;0;2;2224;22431;4;2343;400;24;3;1270;15302;4;1348;447;20;4;973;20663;5;1013;200;14;5;0;0;0;0;0;0;0;0;6;1919;42973;4;965;954;630;604;27;7;2979;38915;4;3127;492;24;8;2927;38270;4;3077;497;24;9;1096;21080;4;1157;386;19
13.02.21;16:05:00;1;345;19259;0;2;2364;22246;4;2491;402;25;3;1330;15197;4;1408;441;20;4;1003;20582;5;1045;199;14;5;0;0;0;0;0;0;0;0;6;2074;42813;4;1063;1050;624;600;28;7;3135;38667;4;3287;493;25;8;3074;38027;4;3228;496;25;9;1298;20989;4;1373;420;20
13.02.21;16:00:00;1;346;19230;0;2;2432;22049;4;2561;397;26;3;1371;15086;4;1450;441;20;4;927;20498;5;966;200;15;5;0;0;0;0;0;0;0;0;6;2215;42639;4;1138;1116;628;597;28;7;3243;38406;4;3404;495;25;8;3193;37770;4;3348;495;25;9;1450;20880;4;1533;450;21
13.02.21;15:55:00;1;389;19201;0;2;2494;21847;4;2622;398;27;3;1405;14971;4;1486;444;21;4;932;20421;5;970;213;15;5;0;0;0;0;0;0;0;0;6;2339;42453;4;1215;1184;624;596;28;7;3325;38135;4;3491;492;26;8;3293;37503;4;3444;488;26;9;1570;20760;4;1661;481;22
13.02.21;15:50:00;1;438;19168;0;2;2535;21638;4;2667;397;27;3;1439;14854;4;1520;436;21;4;942;20343;5;981;210;16;5;0;0;0;0;0;0;0;0;6;2431;42257;4;1230;1201;623;597;28;7;3372;37858;4;3541;491;26;8;3330;37228;4;3489;476;26;9;1675;20628;4;1776;506;23
13.02.21;15:45:00;1;408;19100;0;2;2506;21426;4;2642;401;28;3;1445;14734;4;1528;435;21;4;1016;20265;5;1058;216;16;5;0;0;0;0;0;0;0;0;6;2670;42052;4;1396;1356;619;590;28;7;3570;37576;4;3741;488;27;8;3524;36950;4;3694;492;27;9;1860;20489;4;1973;529;24
13.02.21;15:40:00;1;444;19066;0;2;3008;21214;4;3172;412;29;3;1677;14612;4;1767;440;22;4;1141;20180;5;1188;234;17;5;0;0;0;0;0;0;0;0;6;3142;41827;4;1610;1570;617;592;29;7;4053;37277;4;4250;490;28;8;3991;36657;4;4177;484;27;9;2182;20334;4;2310;537;25
13.02.21;15:35:00;1;1234;19028;0;2;3074;20963;4;3240;403;30;3;1710;14472;4;1801;432;22;4;1146;20084;5;1194;246;18;5;0;0;0;0;0;0;0;0;6;3282;41563;4;1693;1642;620;592;29;7;4151;36940;4;4358;488;28;8;4098;36325;4;4290;484;28;9;2243;20153;4;2375;536;25
13.02.21;15:30:00;1;574;18952;0;2;3151;20708;4;3320;409;30;3;1739;14330;4;1830;436;22;4;1162;19989;5;1210;236;18;5;0;0;0;0;0;0;0;0;6;3356;41290;4;1720;1675;616;592;29;7;4223;36594;4;4432;482;28;8;4163;35984;4;4363;482;28;9;2283;19966;4;2417;533;25
13.02.21;15:25:00;1;525;18904;0;2;3242;20445;4;3421;410;31;3;1770;14185;4;1864;432;23;4;1260;19892;5;1312;245;19;5;0;0;0;0;0;0;0;0;6;3487;41010;4;1802;1761;614;591;29;7;4320;36242;4;4536;481;29;8;4255;35637;4;4460;484;28;9;2330;19776;4;2474;535;26
13.02.21;15:20:00;1;755;18860;0;2;3367;20175;4;3552;404;32;3;1837;14037;4;1937;440;23;4;1455;19786;5;1515;238;19;5;0;0;0;0;0;0;0;0;6;3700;40716;4;1923;1867;615;593;29;7;4500;35884;4;4720;477;29;8;4431;35285;4;4641;480;29;9;2427;19582;4;2574;536;26
13.02.21;15:15:00;1;756;18798;0;2;3424;19895;4;3606;405;32;3;1876;13884;4;1970;437;24;4;1568;19666;5;1633;246;20;5;0;0;0;0;0;0;0;0;6;3824;40409;4;1990;1936;615;592;29;7;4583;35507;4;4809;482;29;8;4509;34913;4;4729;477;29;9;2477;19379;4;2623;532;27
13.02.21;15:10:00;1;563;18739;0;2;3528;19609;4;3727;419;33;3;1913;13728;4;2011;436;24;4;1705;19534;5;1776;247;21;5;0;0;0;0;0;0;0;0;6;3980;40088;4;2066;2005;617;593;30;7;4702;35125;4;4930;483;30;8;4629;34537;4;4851;475;29;9;2550;19174;4;2699;531;27
13.02.21;15:05:00;1;553;18693;0;2;3618;19316;4;3817;414;33;3;1968;13568;4;2070;443;25;4;1786;19393;5;1861;245;22;5;0;0;0;0;0;0;0;0;6;4114;39755;4;2107;2045;617;595;30;7;4798;34733;4;5028;480;30;8;4717;34151;4;4941;479;30;9;2593;18960;4;2748;532;28
13.02.21;15:00:00;1;1215;18646;0;2;3651;19014;4;3847;409;33;3;2108;13404;4;2222;479;25;4;1983;19244;5;2065;244;22;5;0;0;0;0;0;0;0;0;6;4236;39411;4;2188;2111;615;592;30;7;4844;34334;4;5086;487;30;8;4780;33762;4;5010;482;30;9;2636;18746;4;2794;530;28
13.02.21;14:55:00;1;650;18564;0;2;3751;18709;4;3952;410;34;3;2288;13229;4;2413;500;26;4;2125;19079;5;2214;249;23;5;0;0;0;0;0;0;0;0;6;4420;39057;4;2294;2205;617;593;30;7;4981;33930;4;5229;474;31;8;4918;33360;4;5154;477;30;9;2707;18524;4;2866;536;28
13.02.21;14:50:00;1;809;18504;0;2;3821;18396;4;4030;417;34;3;2431;13038;4;2565;517;27;4;2307;18901;5;2403;254;24;5;0;0;0;0;0;0;0;0;6;4562;38688;4;2355;2265;618;594;30;7;5098;33515;4;5352;485;31;8;5029;32950;4;5270;477;31;9;2771;18298;4;2937;531;29
13.02.21;14:45:00;1;1818;18437;0;2;3860;18078;4;4075;414;34;3;2532;12835;4;2671;534;27;4;2407;18708;5;2507;254;24;5;0;0;0;0;0;0;0;0;6;4686;38307;4;2427;2346;616;595;30;7;5172;33090;4;5431;480;31;8;5096;32531;4;5345;476;31;9;2813;18067;4;2981;528;29
13.02.21;14:40:00;1;2505;18280;0;2;3914;17757;4;4124;410;35;3;2565;12624;4;2704;528;27;4;2574;18508;5;2681;253;25;5;0;0;0;0;0;0;0;0;6;4815;37915;4;2508;2412;617;592;30;7;5272;32659;4;5526;480;32;8;5193;32107;4;5448;477;31;9;2870;17833;4;3041;530;29
13.02.21;14:35:00;1;2509;18072;0;2;3933;17431;4;4143;412;35;3;2572;12411;4;2712;528;27;4;2691;18294;5;2803;254;26;5;0;0;0;0;0;0;0;0;6;4896;37513;4;2528;2440;612;590;31;7;5290;32219;4;5547;475;32;8;5210;31675;4;5469;472;31;9;2883;17594;4;3051;525;30
13.02.21;14:30:00;1;2417;17862;0;2;3996;17103;4;4211;410;35;3;2621;12196;4;2763;531;27;4;2823;18069;5;2940;250;26;5;0;0;0;0;0;0;0;0;6;5052;37103;4;2633;2522;615;594;31;7;5396;31778;4;5669;483;32;8;5322;31239;4;5578;470;32;9;2949;17353;4;3121;528;30
13.02.21;14:25:00;1;1926;17660;0;2;4042;16769;4;4257;410;35;3;2644;11978;4;2788;538;27;4;2938;17835;5;3061;250;27;5;0;0;0;0;0;0;0;0;6;5175;36681;4;2685;2573;616;590;31;7;5478;31329;4;5747;483;32;8;5386;30796;4;5652;476;32;9;2988;17108;4;3166;528;31
13.02.21;14:20:00;1;633;17526;0;2;4089;16432;4;4311;418;35;3;2684;11757;4;2827;536;27;4;3074;17589;5;3203;250;28;5;0;0;0;0;0;0;0;0;6;5301;36249;4;2759;2647;620;595;31;7;5569;30873;4;5841;476;33;8;5478;30347;4;5745;471;32;9;3034;16858;4;3215;530;31